This demonstration page uses our WeatherBlox Daily Observations layout. Learn more.

Left ArrowRight Arrow

40.92945, -100.16068

Hourly Observations for December 27, 2020

Temp ( °F °C ) Dew Point ( °F °C ) Humidity (%) Winds ( mph kmh ) Pressure ( in mb ) Visibility ( mi km ) Precip ( " mm )
12:15 am 00:15 Clear 29 -1.8 25 -3.8 86 86 W 9 15 29.79 1009 10 16.0934 0 0
12:35 am 00:35 Clear 31 -0.7 26 -3.6 81 81 W 8 13 29.78 1009 10 16.0934 0 0
12:55 am 00:55 Clear 31 -0.8 25 -3.7 81 81 WNW 10 17 29.79 1009 10 16.0934 0 0
1:15 am 01:15 Clear 32 0 26 -3.1 80 80 NW 10 17 29.77 1008 10 16.0934 0 0
1:35 am 01:35 Partly Cloudy 36 2.1 27 -2.7 71 71 NW 14 22 29.75 1007 10 16.0934 0 0
1:55 am 01:55 Clear 37 2.7 27 -2.6 68 68 NW 10 17 29.74 1007 10 16.0934 0 0
2:15 am 02:15 Clear 35 1.5 28 -2.5 75 75 WNW 10 17 29.76 1008 10 16.0934 0 0
2:35 am 02:35 Clear 34 1.3 28 -2.4 77 77 WNW 10 17 29.77 1008 10 16.0934 0 0
2:55 am 02:55 Clear 33 0.4 28 -2.3 82 82 WNW 8 13 29.77 1008 10 16.0934 0 0
3:15 am 03:15 Partly Cloudy 33 0.4 28 -2 84 84 W 9 15 29.78 1009 10 16.0934 0 0
3:35 am 03:35 Partly Cloudy 32 0.2 28 -2.1 85 85 SW 3 6 29.78 1009 10 16.0934 0 0
3:55 am 03:55 Mostly Cloudy 33 0.3 28 -2.1 84 84 NNW 12 19 29.76 1008 10 16.0934 0 0
4:15 am 04:15 Cloudy 36 2 29 -1.5 78 78 WNW 6 9 29.76 1008 10 16.0934 0 0
4:35 am 04:35 Partly Cloudy 36 2 31 -0.8 82 82 NW 6 9 29.75 1007 10 16.0934 0 0
4:55 am 04:55 Clear 35 1.9 31 -0.8 83 83 W 7 11 29.76 1008 10 16.0934 0 0
5:15 am 05:15 Clear 33 0.5 29 -1.4 87 87 NW 9 15 29.76 1008 10 16.0934 0 0
5:35 am 05:35 Clear 32 0.1 29 -1.7 88 88 NW 8 13 29.77 1008 10 16.0934 0 0
5:55 am 05:55 Clear 32 0 28 -2 87 87 WNW 9 15 29.8 1009 10 16.0934 0 0
6:15 am 06:15 Clear 35 1.7 30 -1 82 82 NW 14 22 29.79 1009 10 16.0934 0 0
6:35 am 06:35 Clear 34 1.2 30 -1.1 85 85 NNW 10 17 29.81 1010 10 16.0934 0 0
6:55 am 06:55 Clear 32 0.1 29 -1.6 88 88 NW 9 15 29.84 1010 10 16.0934 0 0
7:15 am 07:15 Clear 35 1.4 27 -2.6 75 75 NNW 14 22 29.83 1010 10 16.0934 0 0
7:35 am 07:35 Clear 34 0.9 27 -2.6 78 78 NW 14 22 29.87 1011 10 16.0934 0 0
7:55 am 07:55 Mostly Cloudy 34 1.1 28 -2.3 78 78 NW 13 20 29.88 1012 10 16.0934 0 0
8:15 am 08:15 Cloudy 35 1.4 29 -1.4 82 82 NW 13 20 29.88 1012 10 16.0934 0 0
8:35 am 08:35 Cloudy 36 2.4 31 -0.6 81 81 NW 14 22 29.9 1013 10 16.0934 0 0
8:55 am 08:55 Cloudy 36 2.4 31 -0.5 81 81 NW 13 20 29.9 1013 10 16.0934 0 0
9:15 am 09:15 Cloudy 37 2.5 32 0 84 84 NW 15 24 29.92 1013 10 16.0934 0 0
9:35 am 09:35 Cloudy 38 3.5 33 0.5 81 81 NNW 16 26 29.91 1013 10 16.0934 0 0
9:55 am 09:55 Mostly Cloudy 38 3.5 33 0.8 83 83 N 16 26 29.92 1013 10 16.0934 0 0
10:15 am 10:15 Partly Cloudy 39 4 34 1 81 81 NNW 20 31 29.94 1014 10 16.0934 0 0
10:35 am 10:35 Mostly Cloudy 39 3.8 33 0.4 79 79 NNW 20 31 29.96 1015 10 16.0934 0 0
10:55 am 10:55 Mostly Cloudy 40 4.5 33 0.4 75 75 NNW 23 37 29.96 1015 10 16.0934 0 0
11:15 am 11:15 Cloudy 39 4 32 0.1 76 76 NNW 25 41 29.99 1015 10 16.0934 0 0
11:35 am 11:35 Mostly Cloudy 41 5 32 0.2 71 71 NW 20 31 29.97 1015 10 16.0934 0 0
11:55 am 11:55 Mostly Cloudy 42 5.6 31 -0.6 65 65 NNW 24 39 29.96 1015 10 16.0934 0 0
12:15 pm 12:15 Cloudy 43 6 32 -0.2 65 65 NNW 24 39 29.97 1015 10 16.0934 0 0
12:35 pm 12:35 Mostly Cloudy 43 6.1 32 -0.2 64 64 NNW 28 44 29.96 1014 10 16.0934 0 0
12:55 pm 12:55 Cloudy 42 5.7 31 -0.4 65 65 NW 28 44 29.97 1015 10 16.0934 0 0
1:15 pm 13:15 Mostly Cloudy 43 6.1 31 -0.7 62 62 NW 24 39 29.97 1015 10 16.0934 0 0
1:35 pm 13:35 Mostly Cloudy 43 6.2 31 -0.3 63 63 NNW 25 41 29.98 1015 10 16.0934 0 0
1:55 pm 13:55 Mostly Cloudy 42 5.5 31 -0.6 65 65 NNW 21 33 29.98 1015 10 16.0934 0 0
2:15 pm 14:15 Partly Cloudy 42 5.6 30 -1.2 62 62 NNW 26 43 29.99 1016 10 16.0934 0 0
2:35 pm 14:35 Sunny 42 5.7 30 -1 62 62 NW 22 35 29.99 1016 10 16.0934 0 0
2:55 pm 14:55 Mostly Cloudy 43 6.1 31 -0.7 62 62 NNW 24 39 30 1016 10 16.0934 0 0
3:15 pm 15:15 Mostly Cloudy 42 5.7 30 -1.1 62 62 NNW 21 33 30.02 1017 10 16.0934 0 0
3:35 pm 15:35 Partly Cloudy 42 5.5 30 -1.1 63 63 NNW 20 31 30.02 1017 10 16.0934 0 0
3:55 pm 15:55 Sunny 41 5 29 -1.9 61 61 NNW 23 37 30.02 1017 10 16.0934 0 0
4:15 pm 16:15 Sunny 40 4.7 28 -2.1 62 62 NNW 17 28 30.02 1017 10 16.0934 0 0
4:35 pm 16:35 Sunny 40 4.2 30 -1.3 68 68 N 15 24 30.04 1017 10 16.0934 0 0
4:55 pm 16:55 Partly Cloudy 38 3.1 29 -1.6 72 72 N 15 24 30.07 1018 10 16.0934 0 0
5:15 pm 17:15 Mostly Cloudy 37 2.8 28 -2.1 70 70 N 14 22 30.07 1018 10 16.0934 0 0
5:35 pm 17:35 Mostly Cloudy 36 2 28 -2.2 74 74 NNW 12 19 30.11 1020 10 16.0934 0 0
5:55 pm 17:55 Partly Cloudy 35 1.8 27 -2.6 73 73 NNW 15 24 30.12 1020 10 16.0934 0 0
6:15 pm 18:15 Clear 34 1.1 27 -2.9 75 75 NNW 12 19 30.14 1021 10 16.0934 0 0
6:35 pm 18:35 Clear 33 0.6 27 -3 77 77 NNW 13 20 30.15 1021 10 16.0934 0 0
6:55 pm 18:55 Clear 32 0 26 -3.2 79 79 N 5 7 30.18 1022 10 16.0934 0 0
7:15 pm 19:15 Clear 31 -0.5 26 -3.1 83 83 Calm 30.2 1023 10 16.0934 0 0
7:35 pm 19:35 Clear 30 -1.1 26 -3.2 86 86 Calm 30.22 1023 10 16.0934 0 0
7:55 pm 19:55 Clear 29 -1.9 26 -3.6 88 88 Calm 30.25 1024 10 16.0934 0 0
8:15 pm 20:15 Clear 29 -1.8 25 -3.7 87 87 Calm 30.26 1025 10 16.0934 0 0
8:35 pm 20:35 Clear 30 -1 25 -4 80 80 N 7 11 30.25 1024 10 16.0934 0 0
8:55 pm 20:55 Partly Cloudy 29 -1.6 24 -4.3 82 82 N 6 9 30.27 1025 10 16.0934 0 0
9:15 pm 21:15 Partly Cloudy 28 -2.1 24 -4.4 84 84 NNW 7 11 30.28 1025 10 16.0934 0 0
9:35 pm 21:35 Partly Cloudy 28 -2.5 24 -4.5 86 86 NNW 5 7 30.29 1026 10 16.0934 0 0
9:55 pm 21:55 Partly Cloudy 28 -2.5 24 -4.6 86 86 WNW 3 6 30.3 1026 10 16.0934 0 0
10:15 pm 22:15 Mostly Cloudy 27 -3 23 -4.9 87 87 NNW 5 7 30.31 1026 10 16.0934 0 0
10:35 pm 22:35 Cloudy 28 -2.3 24 -4.3 86 86 NNW 3 6 30.3 1026 10 16.0934 0 0
10:55 pm 22:55 Cloudy 28 -2.3 24 -4.2 87 87 NW 3 6 30.3 1026 10 16.0934 0 0
11:15 pm 23:15 Cloudy 28 -2 24 -4.2 85 85 Calm 30.3 1026 10 16.0934 0 0
11:35 pm 23:35 Cloudy 28 -2 25 -4 86 86 N 3 6 30.31 1026 10 16.0934 0 0
11:55 pm 23:55 Cloudy 29 -1.8 25 -3.7 87 87 NNW 3 6 30.31 1026 10 16.0934 0 0

Powered by AerisWeather